Temperature
21 22 22 23 23 24 24 24 25 25 24 24 25 26 26 27 27 27 27 28 28 27 25 23 23 23 22 22 21 20 20 19 19 19 19 19 18 18 18 17 17 17 16 16
22 22 22 22 22 22 23 23 24 24 23 23 24 24 26 26 27 27 27 27 27 26 24 23 22 22 22 22 21 20 19 19 19 19 19 19 18 18 17 17 17 17 16 16
22 22 22 21 21 21 21 21 22 22 22 22 22 23 25 26 27 26 25 25 25 24 24 23 22 22 22 21 21 20 19 19 19 18 18 18 18 18 17 17 17 17 17 16
22 22 21 21 21 21 20 21 21 21 21 21 22 22 25 26 26 27 26 25 24 23 23 23 22 22 21 21 21 20 20 19 19 18 18 18 17 17 17 17 17 17 17 16
23 22 22 21 21 21 20 19 19 19 19 20 21 21 24 26 26 27 26 25 23 23 23 22 22 21 21 21 21 20 19 19 19 18 18 17 17 16 16 16 16 16 16 16
24 24 23 23 23 22 20 19 19 19 20 20 22 22 24 26 26 26 26 24 23 23 23 22 21 21 21 21 21 20 20 19 19 18 17 17 16 16 16 16 16 16 16 16
24 24 24 23 22 22 21 20 19 20 20 21 23 23 24 26 26 26 25 25 23 23 22 22 22 21 21 21 20 20 20 19 19 18 17 17 16 16 16 16 16 16 16 16
23 23 24 24 23 23 22 22 20 20 21 22 22 23 25 26 25 24 24 24 24 23 22 22 22 21 21 20 20 20 19 19 18 18 17 17 16 16 15 15 15 15 15 15
22 23 24 24 24 24 23 22 23 22 22 22 23 24 25 26 26 25 25 24 24 23 23 22 22 21 21 20 20 20 19 18 18 18 17 17 16 16 15 15 15 15 15 15
21 21 23 23 23 23 23 23 22 22 21 22 23 23 24 25 25 25 26 25 24 24 24 23 22 21 21 21 20 20 19 18 18 17 17 17 16 15 15 15 15 15 15 15
20 20 21 22 22 22 22 21 22 22 22 21 21 23 24 24 24 24 25 25 24 24 24 23 22 22 21 21 21 20 20 18 18 17 17 16 16 16 15 15 15 15 15 15
20 19 19 21 21 20 20 21 20 19 20 20 20 22 24 24 24 24 24 23 23 23 23 23 22 22 22 22 21 21 20 19 18 18 17 16 16 16 15 15 15 15 15 15
19 18 17 19 19 19 19 19 20 20 20 20 20 22 24 24 24 23 23 23 23 22 22 22 22 21 21 21 21 21 20 19 19 18 17 17 16 16 15 15 15 15 15 15
17 17 16 16 17 17 18 18 19 19 19 20 20 22 23 23 23 23 22 22 22 22 22 22 21 21 21 21 21 20 20 19 19 18 18 17 16 16 15 15 15 15 15 15
17 17 17 17 17 17 17 18 19 19 20 20 20 21 21 21 20 21 21 21 21 22 22 22 21 21 21 21 20 19 19 19 19 19 18 17 16 16 16 15 15 14 14 14
17 16 16 16 17 17 18 19 19 19 20 19 19 20 20 18 19 20 21 21 21 21 21 21 21 20 20 20 19 19 19 19 18 18 18 17 17 16 16 15 15 14 14 14
16 15 15 15 16 17 18 18 19 18 18 18 17 17 17 18 19 19 20 20 20 20 20 19 19 19 19 19 18 18 18 18 18 17 17 17 16 16 16 16 15 15 15 14
15 15 15 15 16 16 17 18 18 18 17 16 16 16 16 17 18 19 18 18 19 19 18 18 18 17 17 17 17 17 17 17 17 17 16 16 16 16 16 16 15 15 15 15
15 14 14 14 15 17 16 15 15 16 16 16 15 16 15 16 21 21 17 16 17 17 16 17 17 17 17 17 17 17 17 16 16 16 16 16 16 16 16 15 15 15 15 15
14 14 13 13 13 14 12 13 14 16 16 14 14 15 15 15 19 19 16 15 15 15 16 16 17 17 18 17 16 16 15 15 15 15 15 15 15 15 15 15 15 15 15 14
14 14 13 13 13 12 10 12 15 14 12 12 13 14 14 14 15 15 15 15 14 15 15 16 16 17 16 15 15 15 14 13 13 13 13 14 14 14 14 14 14 14 14 14
12 12 12 11 11 10 10 11 10 10 10 11 12 13 13 13 14 15 15 14 14 14 15 15 16 16 15 14 14 13 13 12 12 12 12 12 12 12 12 13 13 13 13 13
13 12 12 11 11 11 10 10 9 9 9 11 11 12 13 13 14 15 15 15 15 14 14 14 15 14 14 14 13 13 13 12 12 11 11 11 11 11 12 12 12 12 12 12
13 13 13 13 13 12 11 10 9 9 9 10 11 12 12 13 14 15 15 15 15 15 14 14 14 14 14 13 13 13 12 12 11 11 11 11 11 11 11 11 11 11 11 11
12 12 12 12 12 11 11 10 9 8 9 9 10 11 12 13 14 15 15 16 15 15 15 14 14 14 14 13 13 13 12 12 11 11 11 11 11 11 11 11 11 11 11 11
11 11 10 10 11 10 10 9 8 8 8 9 10 11 12 13 14 14 15 15 15 15 15 15 14 14 14 14 13 13 13 12 11 11 11 11 10 10 10 10 11 11 11 11
Wind_Speed
1 4 6 7 7 9 9 11 13 9 3 6 10 12 12 11 10 12 13 13 13 12 7 5 5 5 7 8 10 11 12 13 12 10 10 9 9 9 8 8 11 12 13 13
3 5 4 3 4 7 9 11 12 8 4 6 12 16 16 15 15 14 13 12 12 10 8 7 6 5 4 4 5 7 10 11 12 11 10 7 8 8 8 8 10 12 14 14
5 4 1 4 5 8 8 9 9 8 6 5 9 14 16 16 14 12 12 11 9 9 10 9 7 5 4 3 3 4 6 8 10 11 8 6 6 6 8 9 9 10 12 13
4 3 4 6 7 8 7 4 5 6 6 5 4 9 11 12 14 13 12 10 10 10 10 9 7 6 4 4 3 4 5 6 8 10 10 10 8 8 9 8 8 9 11 12
4 4 6 8 8 7 3 2 3 5 6 8 8 9 10 9 11 10 7 8 11 13 12 10 8 6 5 4 4 4 5 6 7 9 9 10 8 7 6 7 8 9 10 11
9 6 8 9 7 7 5 1 3 4 5 8 11 10 9 6 5 4 2 7 12 13 12 10 8 6 5 5 4 5 5 5 6 7 8 9 8 8 7 8 8 8 7 8
8 7 6 6 5 7 9 5 3 4 5 6 4 7 7 5 5 6 5 8 13 13 12 10 10 8 7 6 5 5 6 6 6 6 7 7 7 8 8 8 8 8 7 7
9 7 3 4 6 6 10 11 7 4 5 3 5 7 4 4 5 6 4 8 13 13 11 11 10 9 8 8 7 6 6 6 6 6 5 5 6 6 6 7 7 8 7 8
8 7 3 4 6 8 8 11 11 11 12 9 7 6 7 6 3 1 4 9 12 12 11 11 10 9 9 9 9 9 8 7 7 7 6 6 6 6 6 7 7 6 6 6
7 12 10 6 5 5 7 6 6 7 7 9 8 8 6 4 4 1 3 7 9 9 10 10 10 10 10 10 10 10 9 9 8 8 7 6 6 6 6 6 7 7 7 7
7 9 11 8 6 5 4 5 7 7 6 6 5 2 2 5 6 5 3 2 4 6 7 8 9 10 10 10 11 11 11 11 9 9 8 8 7 7 7 6 6 6 6 7
6 7 11 9 2 2 3 4 5 6 6 4 4 4 3 5 6 8 8 8 8 7 7 7 8 9 10 11 12 12 12 12 11 9 8 8 7 7 7 7 7 7 7 7
7 6 7 5 3 2 1 1 4 5 6 7 6 4 1 5 9 10 11 11 10 9 9 8 7 8 9 11 12 13 12 12 11 10 9 9 9 8 8 8 7 8 8 8
6 7 7 7 6 4 4 5 6 7 6 7 9 10 9 12 15 16 16 15 13 11 10 9 8 7 7 9 10 11 12 11 11 11 10 9 9 9 8 8 8 9 9 9
7 8 8 10 9 7 10 11 10 11 10 9 10 12 12 16 19 19 18 16 14 13 11 10 9 7 6 7 9 10 10 10 11 11 10 9 9 8 8 8 9 9 9 9
7 7 9 11 9 10 11 10 9 8 6 7 9 9 14 20 19 16 14 13 12 11 9 8 7 6 5 6 7 8 9 9 9 10 9 8 8 8 8 9 9 9 9 9
7 7 7 8 9 11 5 3 4 9 12 8 8 13 20 21 19 14 12 10 9 7 5 3 2 1 1 3 5 7 7 7 7 7 7 7 8 9 9 9 9 10 10 10
10 9 5 7 8 4 6 10 8 10 15 16 14 16 19 21 15 9 13 11 8 5 4 5 6 7 7 7 6 5 5 4 4 4 5 6 7 8 8 9 10 10 10 10
7 6 3 4 6 3 6 11 12 4 7 20 21 22 24 25 7 11 19 16 9 6 7 8 9 10 10 10 8 7 6 4 2 0 3 4 6 7 8 9 10 10 10 10
1 3 3 4 5 2 10 21 19 7 1 22 23 24 24 23 13 12 19 14 7 7 7 8 9 11 11 10 9 9 8 7 6 4 2 2 3 5 7 8 8 8 9 9
9 5 4 5 4 5 14 21 13 4 9 20 21 22 21 17 13 17 16 7 4 5 6 7 9 10 10 9 9 9 9 8 7 5 5 3 1 2 3 4 6 7 8 8
9 8 7 6 5 5 16 14 9 9 15 19 21 21 21 20 19 16 9 2 2 4 4 5 8 9 8 8 8 9 8 6 6 5 5 5 4 2 1 2 3 5 6 8
7 7 5 4 3 5 9 7 7 11 17 19 21 22 21 21 19 16 8 1 3 3 3 4 6 7 7 6 7 7 6 5 5 5 5 5 5 4 3 2 2 3 4 5
6 7 7 7 5 10 9 8 12 15 18 21 21 21 21 20 19 15 7 3 4 4 4 4 5 5 5 4 4 5 4 4 4 5 5 5 5 5 4 3 2 2 3 4
5 6 7 8 10 12 9 15 16 17 19 20 21 20 19 19 18 15 8 5 5 5 5 4 4 3 3 2 1 2 2 3 4 4 4 4 4 5 5 5 5 3 2 2
2 4 6 7 12 12 17 16 17 18 19 20 21 21 20 18 17 14 8 4 6 6 6 6 5 4 2 1 0 1 1 2 4 4 4 3 3 3 3 4 5 11 9 8
Wind_Direction
224 240 250 264 255 263 265 255 253 251 283 276 260 265 272 279 277 270 265 257 246 236 219 205 201 206 215 221 226 223 219 209 195 188 188 192 199 199 202 207 209 204 208 205
245 261 290 290 264 251 247 249 254 255 280 282 277 277 277 276 275 274 271 265 247 226 202 184 178 173 183 197 215 217 214 209 200 194 192 196 199 203 202 202 211 208 209 208
267 294 263 231 237 247 253 259 268 275 299 275 287 277 267 265 264 263 259 258 246 214 196 175 169 160 155 158 175 193 202 202 200 193 187 182 184 194 199 202 205 209 212 210
268 259 231 245 250 254 263 291 287 289 284 280 268 284 272 267 263 258 254 237 217 195 182 171 170 163 153 138 142 163 175 186 190 188 191 193 199 207 212 207 200 201 208 210
258 234 236 248 249 231 250 352 326 301 284 278 256 268 277 264 262 262 248 219 195 182 177 173 172 160 149 140 141 146 153 168 181 192 197 207 217 222 218 209 203 203 207 211
269 249 245 249 238 210 174 131 303 270 266 263 253 247 274 258 266 283 252 194 181 176 177 175 169 166 161 154 151 149 154 158 175 190 200 210 215 212 210 209 208 204 201 205
276 251 224 229 216 189 195 207 246 241 224 249 243 247 263 288 298 292 267 191 177 178 182 184 183 185 186 182 175 166 161 162 172 189 201 205 208 213 216 216 212 207 202 204
286 277 208 206 237 232 215 219 229 254 256 249 205 243 264 302 302 296 243 188 179 185 192 195 197 197 199 198 193 186 178 171 172 183 193 203 197 210 217 218 217 213 213 213
297 284 271 267 271 255 234 226 239 258 268 271 249 242 269 268 288 295 176 180 188 195 200 205 206 206 208 206 202 197 190 184 180 183 183 195 199 206 211 214 215 217 219 212
301 292 288 293 254 221 256 268 231 233 251 251 248 244 252 282 328 340 179 186 195 207 213 214 214 213 214 212 206 199 197 194 189 187 186 187 200 206 215 214 213 214 214 208
289 282 281 273 270 267 227 222 244 246 256 261 255 206 42 7 3 353 327 262 243 238 236 228 223 220 216 211 203 198 197 197 193 193 191 191 196 200 207 214 216 213 211 206
300 282 274 269 287 277 254 249 237 247 247 256 271 264 9 349 352 350 338 327 308 288 271 255 240 228 219 213 205 201 198 196 194 195 194 196 195 197 206 209 208 208 207 206
311 290 288 253 198 199 193 216 252 261 261 248 249 259 21 313 317 322 318 312 303 291 277 263 248 237 230 220 210 203 199 195 190 190 194 195 198 201 206 209 208 209 209 208
308 273 270 281 307 318 301 281 264 255 258 263 261 282 296 311 317 314 309 305 297 287 277 269 261 249 240 231 216 204 195 190 187 189 194 199 202 204 208 209 208 211 211 212
332 299 304 299 299 292 283 278 267 256 261 272 290 299 315 331 322 310 301 295 291 281 276 272 268 263 245 225 210 198 190 186 187 192 197 201 204 203 209 210 210 212 215 220
328 306 314 302 298 294 280 279 271 265 282 296 310 315 342 327 318 309 303 299 292 287 284 281 279 271 247 213 193 184 186 188 192 199 203 200 205 202 207 210 213 210 210 217
297 297 306 295 300 294 256 31 57 82 55 28 5 340 332 330 330 333 332 322 313 311 314 319 329 356 107 152 167 172 178 180 197 206 206 205 209 206 207 209 210 207 208 211
270 282 280 288 291 238 93 52 42 103 65 35 9 350 341 332 321 10 9 350 345 4 44 72 81 83 86 96 107 118 134 163 194 213 220 218 218 213 208 207 208 210 210 207
238 264 272 278 281 259 76 15 351 310 65 22 3 354 350 342 339 39 18 8 12 46 76 84 86 86 81 79 85 94 96 98 104 221 251 239 226 219 211 208 209 209 208 206
145 231 267 284 282 31 10 341 325 273 96 8 356 352 350 352 3 354 349 355 28 66 82 88 89 85 80 76 80 83 79 73 60 41 5 294 245 230 221 216 210 205 207 208
351 336 319 307 288 73 3 346 353 50 355 340 342 343 344 344 328 316 325 348 50 74 81 87 87 83 80 80 80 77 70 61 50 41 37 32 6 253 232 217 203 199 204 207
357 359 4 352 351 12 354 2 12 339 325 331 333 335 335 330 327 331 335 357 100 98 92 95 96 92 84 79 78 75 67 57 48 42 39 36 32 26 88 181 191 197 198 201
9 4 337 336 322 301 327 336 336 329 324 325 326 327 328 328 330 333 329 226 155 136 123 118 114 107 96 78 67 70 66 49 42 40 37 32 33 41 47 95 158 179 189 195
350 350 331 326 332 336 330 340 338 330 320 318 319 321 323 325 327 328 318 230 189 173 161 155 145 127 110 89 68 61 55 37 30 33 30 32 32 44 53 51 71 153 180 193
325 335 330 317 332 332 322 330 329 325 320 319 319 318 319 321 324 325 310 242 204 186 181 183 180 159 136 116 69 55 31 9 16 25 32 38 42 47 52 55 37 24 50 31
314 323 322 311 320 314 309 320 323 321 319 318 317 316 318 319 320 324 315 255 207 194 186 192 200 204 201 217 301 60 27 351 1 18 26 35 50 62 71 82 76 49 50 56
Height
1505 1505 1504 1500 1499 1498 1496 1496 1495 1491 1494 1494 1491 1488 1485 1485 1485 1485 1484 1484 1485 1487 1490 1491 1492 1494 1496 1497 1499 1501 1503 1505 1506 1508 1510 1513 1516 1518 1520 1523 1525 1527 1530 1533
1504 1504 1501 1501 1500 1499 1498 1498 1496 1493 1495 1494 1491 1487 1482 1481 1480 1480 1480 1480 1481 1484 1487 1489 1490 1492 1493 1494 1495 1496 1498 1500 1501 1503 1506 1509 1512 1514 1516 1519 1521 1524 1526 1529
1504 1502 1501 1502 1502 1503 1502 1502 1501 1501 1497 1495 1495 1489 1480 1475 1475 1476 1477 1478 1480 1482 1484 1487 1488 1490 1491 1492 1492 1493 1494 1495 1497 1499 1501 1504 1507 1509 1512 1514 1517 1519 1522 1525
1501 1500 1501 1502 1502 1503 1505 1502 1503 1503 1503 1501 1499 1498 1479 1471 1470 1470 1472 1474 1476 1479 1482 1484 1487 1488 1490 1490 1490 1491 1492 1493 1494 1495 1497 1500 1503 1505 1508 1510 1513 1515 1517 1520
1497 1497 1498 1500 1499 1501 1505 1504 1506 1506 1507 1506 1499 1500 1480 1468 1468 1465 1466 1470 1473 1476 1480 1483 1485 1487 1488 1489 1490 1490 1490 1491 1492 1493 1495 1498 1500 1502 1504 1506 1508 1510 1512 1514
1493 1493 1494 1492 1493 1496 1500 1506 1507 1506 1507 1509 1494 1494 1483 1465 1464 1463 1465 1468 1471 1475 1479 1482 1484 1486 1487 1488 1489 1489 1490 1490 1491 1492 1494 1495 1498 1499 1500 1502 1504 1506 1508 1509
1490 1487 1489 1490 1492 1495 1497 1505 1513 1511 1510 1502 1486 1487 1476 1461 1461 1463 1464 1466 1470 1474 1477 1480 1483 1485 1486 1487 1488 1488 1489 1489 1490 1491 1493 1494 1495 1497 1498 1499 1501 1502 1503 1505
1495 1491 1484 1486 1487 1489 1490 1495 1507 1511 1503 1491 1486 1484 1467 1460 1462 1462 1463 1465 1468 1472 1476 1479 1481 1483 1485 1486 1486 1487 1488 1488 1489 1490 1491 1493 1494 1494 1496 1497 1498 1499 1501 1502
1493 1491 1483 1484 1484 1484 1486 1488 1485 1492 1488 1491 1480 1472 1464 1458 1460 1461 1462 1465 1468 1471 1474 1477 1479 1481 1482 1484 1485 1486 1487 1487 1488 1489 1490 1491 1492 1493 1494 1495 1496 1497 1499 1500
1496 1496 1485 1483 1482 1483 1482 1480 1485 1490 1493 1492 1481 1476 1470 1461 1461 1461 1462 1464 1467 1470 1473 1475 1477 1478 1480 1481 1482 1483 1484 1485 1486 1487 1488 1489 1490 1491 1492 1494 1494 1496 1497 1498
1500 1499 1489 1483 1483 1483 1483 1485 1484 1481 1481 1488 1489 1480 1464 1466 1465 1464 1464 1466 1468 1469 1471 1472 1474 1475 1476 1477 1479 1480 1481 1483 1484 1486 1487 1487 1488 1489 1490 1492 1493 1494 1495 1496
1499 1500 1495 1486 1484 1485 1483 1482 1485 1493 1490 1487 1490 1482 1463 1466 1466 1467 1467 1467 1468 1468 1469 1469 1470 1471 1472 1473 1475 1476 1478 1480 1481 1483 1484 1485 1486 1487 1488 1490 1491 1492 1494 1495
1502 1503 1502 1493 1493 1488 1485 1485 1484 1486 1487 1487 1491 1481 1465 1466 1466 1467 1467 1467 1466 1466 1465 1466 1466 1467 1468 1469 1470 1472 1475 1477 1479 1480 1481 1483 1484 1485 1486 1488 1489 1490 1492 1493
1504 1501 1506 1506 1498 1494 1491 1488 1485 1486 1489 1486 1481 1475 1468 1467 1467 1466 1466 1464 1463 1463 1462 1462 1462 1463 1463 1464 1466 1468 1470 1473 1475 1477 1478 1480 1481 1482 1484 1485 1486 1488 1490 1491
1503 1501 1499 1497 1493 1492 1491 1487 1483 1483 1480 1482 1477 1475 1471 1472 1472 1468 1464 1461 1460 1459 1459 1459 1459 1459 1459 1460 1462 1464 1467 1469 1472 1474 1476 1477 1479 1480 1481 1483 1484 1486 1487 1489
1505 1504 1501 1498 1492 1490 1488 1483 1479 1478 1478 1479 1479 1477 1476 1477 1471 1465 1460 1458 1456 1456 1456 1456 1456 1456 1456 1457 1458 1460 1464 1466 1469 1471 1473 1474 1476 1477 1478 1479 1481 1483 1484 1486
1507 1505 1506 1501 1495 1491 1486 1482 1480 1483 1486 1486 1488 1489 1482 1474 1468 1463 1459 1456 1455 1454 1454 1454 1454 1454 1454 1455 1457 1459 1462 1464 1466 1468 1470 1471 1472 1473 1474 1476 1478 1479 1481 1483
1509 1506 1506 1502 1497 1495 1489 1484 1484 1485 1490 1493 1493 1490 1484 1476 1467 1463 1460 1457 1455 1454 1454 1454 1454 1454 1455 1456 1457 1459 1461 1462 1464 1465 1466 1467 1468 1469 1470 1472 1473 1475 1477 1479
1508 1508 1506 1504 1498 1487 1489 1493 1495 1491 1491 1495 1492 1487 1481 1473 1460 1459 1461 1459 1457 1457 1456 1455 1456 1456 1457 1458 1459 1460 1461 1461 1462 1462 1463 1463 1464 1465 1466 1467 1469 1471 1473 1475
1508 1508 1508 1507 1505 1500 1510 1501 1493 1491 1492 1497 1494 1490 1485 1477 1467 1466 1465 1463 1461 1460 1459 1459 1459 1459 1459 1459 1460 1461 1461 1461 1460 1460 1460 1460 1460 1461 1462 1463 1465 1467 1469 1471
1509 1508 1508 1508 1505 1506 1517 1506 1494 1501 1510 1504 1499 1495 1490 1486 1483 1477 1470 1466 1465 1463 1463 1462 1462 1461 1461 1461 1462 1462 1461 1460 1460 1459 1459 1458 1457 1457 1458 1459 1460 1462 1464 1466
1520 1518 1517 1516 1514 1520 1518 1512 1515 1517 1512 1507 1501 1496 1492 1486 1480 1475 1471 1468 1467 1466 1466 1465 1464 1463 1463 1463 1464 1463 1462 1461 1460 1459 1458 1457 1456 1456 1456 1456 1457 1458 1460 1462
1524 1526 1524 1524 1525 1523 1520 1519 1518 1515 1511 1506 1501 1495 1490 1484 1479 1474 1471 1469 1468 1468 1467 1467 1467 1466 1465 1465 1465 1464 1463 1462 1461 1460 1459 1457 1456 1455 1455 1455 1455 1456 1457 1459
1525 1526 1523 1520 1519 1520 1518 1517 1515 1512 1509 1504 1500 1494 1489 1484 1478 1474 1470 1469 1469 1468 1468 1468 1469 1468 1468 1467 1466 1465 1464 1463 1462 1461 1460 1458 1457 1456 1455 1455 1455 1456 1456 1458
1530 1528 1525 1521 1519 1518 1516 1516 1512 1508 1504 1500 1496 1492 1488 1483 1478 1473 1470 1469 1468 1468 1468 1469 1470 1470 1469 1468 1467 1466 1465 1464 1463 1462 1461 1460 1458 1457 1456 1456 1455 1456 1457 1458
1530 1530 1529 1525 1523 1521 1516 1512 1509 1505 1501 1497 1492 1487 1484 1481 1477 1472 1469 1467 1467 1467 1468 1468 1469 1470 1470 1469 1468 1467 1465 1464 1464 1463 1462 1461 1460 1459 1458 1457 1457 1457 1457 1458